^^
Saratoga-Weather Station Historical Data
Daily Summary for January 14, 2021 Units:  English    Metric   Both
Daily Weekly Monthly Yearly Custom
  High: Low: Average:
Temperature: 86.7 °F 54.7 °F 71.1 °F
Dew Point: 60.1 °F 48 °F 52.7 °F
Humidity: 79% 32% 55%
Wind Speed: 8.1mph 0mph 1.2mph
Wind Gust: 9mph - -
Wind- - SSE
Pressure: 30.2 in 30 in -
Precipitation: 0 in    
Historical Graphs
 
 
Tabular Data for January 14, 2021
Time Temperature Dew Point Pressure Wind Wind Speed Wind Gust Humidity Rainfall Rate (Hourly) solar
00:01 62.8 °F 49.6 °F 30.2 in Calm   1 mph 62% 0 in 0 W/m2
00:06 62.2 °F 48.6 °F 30.2 in SW 0.9 mph 1 mph 61% 0 in 0 W/m2
00:11 62.1 °F 49.3 °F 30.2 in Calm   2 mph 63% 0 in 0 W/m2
00:16 61.9 °F 49.1 °F 30.2 in Calm   1 mph 63% 0 in 0 W/m2
00:21 61.5 °F 49.3 °F 30.2 in Calm     64% 0 in 0 W/m2
00:26 61.3 °F 49.1 °F 30.2 in Calm   1 mph 64% 0 in 0 W/m2
00:31 61.2 °F 49.3 °F 30.2 in Calm     65% 0 in 0 W/m2
00:36 60.8 °F 49.5 °F 30.2 in Calm   2 mph 66% 0 in 0 W/m2
00:41 60.4 °F 49.1 °F 30.2 in Calm   1 mph 66% 0 in 0 W/m2
00:46 60.3 °F 48.9 °F 30.2 in Calm     66% 0 in 0 W/m2
00:51 60.1 °F 49.1 °F 30.2 in Calm   1 mph 67% 0 in 0 W/m2
00:56 59.7 °F 48.7 °F 30.2 in Calm   2 mph 67% 0 in 0 W/m2
01:01 59.5 °F 48.6 °F 30.2 in SW 0.9 mph 1 mph 67% 0 in 0 W/m2
01:06 59.4 °F 48.7 °F 30.2 in Calm     68% 0 in 0 W/m2
01:11 59.4 °F 49.1 °F 30.2 in Calm     69% 0 in 0 W/m2
01:16 59.2 °F 49.1 °F 30.2 in Calm   1 mph 69% 0 in 0 W/m2
01:21 58.8 °F 49.1 °F 30.2 in Calm   1 mph 70% 0 in 0 W/m2
01:26 58.6 °F 48.9 °F 30.2 in SW 0.9 mph 2 mph 70% 0 in 0 W/m2
01:31 58.5 °F 48.7 °F 30.2 in Calm   2 mph 70% 0 in 0 W/m2
01:36 58.5 °F 48.7 °F 30.2 in Calm   1 mph 70% 0 in 0 W/m2
01:41 58.5 °F 49.1 °F 30.2 in Calm     71% 0 in 0 W/m2
01:46 58.3 °F 48.9 °F 30.2 in Calm     71% 0 in 0 W/m2
01:51 58.3 °F 48.9 °F 30.2 in Calm   2 mph 71% 0 in 0 W/m2
01:56 58.3 °F 48.9 °F 30.2 in Calm     71% 0 in 0 W/m2
02:01 58.1 °F 48.4 °F 30.2 in Calm   2 mph 70% 0 in 0 W/m2
02:06 57.9 °F 48.2 °F 30.2 in Calm   1 mph 70% 0 in 0 W/m2
02:11 57.9 °F 48.2 °F 30.2 in Calm   1 mph 70% 0 in 0 W/m2
02:16 58.1 °F 48.7 °F 30.2 in Calm     71% 0 in 0 W/m2
02:21 57.9 °F 48.6 °F 30.2 in Calm     71% 0 in 0 W/m2
02:26 57.9 °F 48.6 °F 30.2 in SW 2 mph 2 mph 71% 0 in 0 W/m2
02:31 57.7 °F 48.4 °F 30.2 in Calm     71% 0 in 0 W/m2
02:36 57.7 °F 48.4 °F 30.2 in Calm     71% 0 in 0 W/m2
02:41 57.7 °F 48.4 °F 30.2 in Calm     71% 0 in 0 W/m2
02:46 57.6 °F 48.6 °F 30.2 in Calm     72% 0 in 0 W/m2
02:51 57.4 °F 48 °F 30.2 in Calm     71% 0 in 0 W/m2
02:56 57.2 °F 48.2 °F 30.2 in Calm     72% 0 in 0 W/m2
03:01 57 °F 48 °F 30.2 in Calm     72% 0 in 0 W/m2
03:06 56.8 °F 48.2 °F 30.2 in Calm     73% 0 in 0 W/m2
03:11 56.7 °F 48 °F 30.2 in Calm     73% 0 in 0 W/m2
03:16 56.5 °F 48 °F 30.2 in Calm     73% 0 in 0 W/m2
03:21 56.5 °F 48.4 °F 30.2 in Calm     74% 0 in 0 W/m2
03:26 56.3 °F 48.2 °F 30.2 in SW 0.9 mph 1 mph 74% 0 in 0 W/m2
03:32 56.3 °F 48.6 °F 30.2 in Calm   1 mph 75% 0 in 0 W/m2
03:37 56.1 °F 48.4 °F 30.2 in Calm     75% 0 in 0 W/m2
03:42 55.9 °F 48.6 °F 30.2 in Calm     76% 0 in 0 W/m2
03:47 55.9 °F 48.2 °F 30.2 in Calm     75% 0 in 0 W/m2
03:52 55.8 °F 48.4 °F 30.2 in Calm   1 mph 76% 0 in 0 W/m2
03:57 55.8 °F 48.4 °F 30.2 in SW 0.9 mph 1 mph 76% 0 in 0 W/m2
04:02 55.8 °F 48.4 °F 30.2 in Calm   2 mph 76% 0 in 0 W/m2
04:07 55.6 °F 48.6 °F 30.2 in Calm   2 mph 77% 0 in 0 W/m2
04:12 55.6 °F 48.6 °F 30.2 in Calm     77% 0 in 0 W/m2
04:17 55.4 °F 48.7 °F 30.2 in Calm   1 mph 78% 0 in 0 W/m2
04:22 55.2 °F 48.6 °F 30.2 in Calm     78% 0 in 0 W/m2
04:27 55 °F 48.4 °F 30.2 in Calm   1 mph 78% 0 in 0 W/m2
04:32 55 °F 48.6 °F 30.2 in SW 0.9 mph 1 mph 79% 0 in 0 W/m2
04:37 55 °F 48.4 °F 30.2 in Calm     78% 0 in 0 W/m2
04:42 55 °F 48.6 °F 30.2 in Calm     79% 0 in 0 W/m2
04:52 54.9 °F 48.6 °F 30.2 in Calm     79% 0 in 0 W/m2
04:57 54.9 °F 48.6 °F 30.2 in Calm     79% 0 in 0 W/m2
05:02 55 °F 48.6 °F 30.2 in Calm     79% 0 in 0 W/m2
05:07 54.9 °F 48.6 °F 30.2 in Calm     79% 0 in 0 W/m2
05:12 54.9 °F 48.6 °F 30.2 in Calm     79% 0 in 0 W/m2
05:17 54.9 °F 48.6 °F 30.2 in Calm     79% 0 in 0 W/m2
05:22 54.7 °F 48.4 °F 30.2 in Calm   1 mph 79% 0 in 0 W/m2
05:27 54.7 °F 48.4 °F 30.2 in Calm   1 mph 79% 0 in 0 W/m2
05:32 54.7 °F 48.4 °F 30.2 in SW 0.9 mph 1 mph 79% 0 in 5 W/m2
05:37 54.7 °F 48.4 °F 30.2 in SW 0.9 mph 1 mph 79% 0 in 7 W/m2
05:42 54.9 °F 48.6 °F 30.2 in Calm   1 mph 79% 0 in 9 W/m2
05:47 55 °F 48.4 °F 30.2 in Calm     78% 0 in 11 W/m2
05:52 55 °F 48.4 °F 30.2 in Calm     78% 0 in 12 W/m2
05:57 55.2 °F 48.6 °F 30.2 in Calm     78% 0 in 14 W/m2
06:02 55.2 °F 48.6 °F 30.2 in Calm     78% 0 in 16 W/m2
06:07 55.2 °F 48.7 °F 30.2 in Calm     79% 0 in 18 W/m2
06:12 55.2 °F 48.7 °F 30.2 in Calm     79% 0 in 19 W/m2
06:17 55.4 °F 48.9 °F 30.2 in Calm     79% 0 in 21 W/m2
06:22 55.6 °F 49.1 °F 30.2 in Calm     79% 0 in 23 W/m2
06:27 55.6 °F 48.9 °F 30.2 in Calm     78% 0 in 23 W/m2
06:32 55.8 °F 48.7 °F 30.2 in Calm   1 mph 77% 0 in 25 W/m2
06:37 55.9 °F 48.9 °F 30.2 in Calm     77% 0 in 26 W/m2
06:42 56.1 °F 48.9 °F 30.2 in Calm   1 mph 77% 0 in 26 W/m2
06:47 56.5 °F 48.9 °F 30.2 in Calm   2 mph 76% 0 in 28 W/m2
06:52 56.8 °F 48.6 °F 30.2 in SE 0.9 mph 2 mph 74% 0 in 28 W/m2
06:57 57.2 °F 48.9 °F 30.2 in Calm   1 mph 74% 0 in 30 W/m2
07:02 57.6 °F 48.9 °F 30.2 in SE 0.9 mph 1 mph 73% 0 in 30 W/m2
07:07 57.7 °F 48.7 °F 30.2 in Calm   1 mph 72% 0 in 30 W/m2
07:12 57.9 °F 48.6 °F 30.2 in SE 0.9 mph 2 mph 71% 0 in 32 W/m2
07:17 58.5 °F 49.1 °F 30.2 in Calm   1 mph 71% 0 in 32 W/m2
07:22 58.6 °F 48.9 °F 30.2 in Calm   1 mph 70% 0 in 33 W/m2
07:27 58.8 °F 49.1 °F 30.2 in Calm     70% 0 in 33 W/m2
07:32 59.2 °F 49.1 °F 30.1 in Calm   1 mph 69% 0 in 35 W/m2
07:37 59.4 °F 49.1 °F 30.1 in Calm   2 mph 69% 0 in 90 W/m2
07:42 59.5 °F 49.3 °F 30.2 in Calm   1 mph 69% 0 in 246 W/m2
07:47 59.9 °F 49.3 °F 30.1 in ENE 0.9 mph 1 mph 68% 0 in 262 W/m2
07:52 61 °F 50 °F 30.2 in Calm   2 mph 67% 0 in 274 W/m2
07:57 62.1 °F 50.2 °F 30.2 in Calm   2 mph 65% 0 in 288 W/m2
08:02 63.1 °F 50.7 °F 30.2 in Calm   1 mph 64% 0 in 302 W/m2
08:07 63.9 °F 50.5 °F 30.2 in Calm   1 mph 62% 0 in 295 W/m2
08:12 64.2 °F 50.9 °F 30.2 in NE 2 mph 3 mph 62% 0 in 199 W/m2
08:17 64.8 °F 51.1 °F 30.2 in East 0.9 mph 2 mph 61% 0 in 67 W/m2
08:22 65.5 °F 51.3 °F 30.2 in ENE 2 mph 2 mph 60% 0 in 44 W/m2
08:27 65.8 °F 51.1 °F 30.2 in Calm   3 mph 59% 0 in 44 W/m2
08:32 65.8 °F 51.6 °F 30.1 in NE 0.9 mph 2 mph 60% 0 in 46 W/m2
08:37 66.4 °F 51.6 °F 30.1 in ENE 2.9 mph 3 mph 59% 0 in 44 W/m2
08:42 66.6 °F 51.3 °F 30.1 in Calm   3 mph 58% 0 in 44 W/m2
08:47 66.7 °F 51.4 °F 30.1 in ENE 2.9 mph 4 mph 58% 0 in 44 W/m2
08:52 66.7 °F 51.4 °F 30.1 in ESE 0.9 mph 4 mph 58% 0 in 44 W/m2
08:57 66.9 °F 51.6 °F 30.1 in ENE 2 mph 3 mph 58% 0 in 44 W/m2
09:02 67.5 °F 52.2 °F 30.1 in Calm   4 mph 58% 0 in 46 W/m2
09:07 67.6 °F 52.3 °F 30.1 in ESE 2.9 mph 6 mph 58% 0 in 49 W/m2
09:12 68 °F 53.1 °F 30.1 in ESE 2 mph 2 mph 59% 0 in 172 W/m2
09:17 68.4 °F 52.5 °F 30.1 in North 2 mph 6 mph 57% 0 in 378 W/m2
09:22 68 °F 52.2 °F 30.1 in NE 2.9 mph 4 mph 57% 0 in 501 W/m2
09:27 68.2 °F 52.9 °F 30.1 in NE 2 mph 5 mph 58% 0 in 527 W/m2
09:32 68.2 °F 52.9 °F 30.1 in ENE 2 mph 2 mph 58% 0 in 541 W/m2
09:37 68.7 °F 53.8 °F 30.1 in ENE 4 mph 4 mph 59% 0 in 555 W/m2
09:42 69.3 °F 53.4 °F 30.1 in Calm   2 mph 57% 0 in 575 W/m2
09:47 69.6 °F 53.8 °F 30.1 in East 0.9 mph 3 mph 57% 0 in 587 W/m2
09:52 70 °F 54 °F 30.1 in NNW 2 mph 4 mph 57% 0 in 598 W/m2
09:58 70.3 °F 54 °F 30.1 in ESE 2 mph 3 mph 56% 0 in 613 W/m2
10:03 71.1 °F 53.6 °F 30.1 in NNE 4 mph 5 mph 54% 0 in 626 W/m2
10:08 71.6 °F 53.6 °F 30.1 in NNE 2 mph 5 mph 53% 0 in 610 W/m2
10:13 71.8 °F 53.2 °F 30.1 in ESE 6 mph 6 mph 52% 0 in 49 W/m2
10:18 72.3 °F 53.2 °F 30.1 in NNW 2 mph 4 mph 51% 0 in 664 W/m2
10:23 72.7 °F 52.3 °F 30.1 in NNE 2.9 mph 9 mph 49% 0 in 677 W/m2
10:28 73 °F 53.2 °F 30.1 in SE 4 mph 6 mph 50% 0 in 689 W/m2
10:33 73.2 °F 52.9 °F 30.1 in SE 4 mph 9 mph 49% 0 in 701 W/m2
10:38 73.2 °F 52.9 °F 30.1 in ESE 2 mph 3 mph 49% 0 in 714 W/m2
10:43 73.4 °F 53.6 °F 30.1 in NE 2.9 mph 4 mph 50% 0 in 722 W/m2
10:48 73.6 °F 52.2 °F 30.1 in NE 2 mph 5 mph 47% 0 in 733 W/m2
10:53 73.6 °F 53.2 °F 30.1 in ESE 2.9 mph 8 mph 49% 0 in 745 W/m2
10:58 73.9 °F 53.6 °F 30.1 in ESE 2.9 mph 6 mph 49% 0 in 758 W/m2
11:03 74.1 °F 52.5 °F 30.1 in ENE 4 mph 5 mph 47% 0 in 763 W/m2
11:08 74.5 °F 52.3 °F 30.1 in ESE 0.9 mph 7 mph 46% 0 in 775 W/m2
11:13 74.8 °F 53.2 °F 30.1 in Calm   6 mph 47% 0 in 788 W/m2
11:18 75 °F 52.2 °F 30.1 in NE 2 mph 4 mph 45% 0 in 800 W/m2
11:23 75 °F 52.2 °F 30.1 in ENE 8.1 mph 8 mph 45% 0 in 812 W/m2
11:28 75.6 °F 51.4 °F 30.1 in ENE 0.9 mph 7 mph 43% 0 in 814 W/m2
11:33 75.9 °F 51.8 °F 30.1 in East 2 mph 3 mph 43% 0 in 826 W/m2
11:38 76.5 °F 52.3 °F 30.1 in NE 0.9 mph 3 mph 43% 0 in 830 W/m2
11:43 76.6 °F 52.5 °F 30.1 in NNE 4 mph 5 mph 43% 0 in 835 W/m2
11:48 76.6 °F 52.5 °F 30.1 in East 2.9 mph 4 mph 43% 0 in 844 W/m2
11:53 76.6 °F 53.1 °F 30.1 in Calm   4 mph 44% 0 in 846 W/m2
11:58 77 °F 54 °F 30.1 in NE 4.9 mph 5 mph 45% 0 in 858 W/m2
12:03 76.8 °F 53.8 °F 30.1 in East 4.9 mph 8 mph 45% 0 in 867 W/m2
12:08 76.6 °F 54.3 °F 30.1 in NNW 4.9 mph 8 mph 46% 0 in 874 W/m2
12:13 77 °F 53.4 °F 30.1 in ESE 4 mph 6 mph 44% 0 in 879 W/m2
12:18 77 °F 53.4 °F 30.1 in East 2.9 mph 7 mph 44% 0 in 879 W/m2
12:23 76.8 °F 53.8 °F 30.1 in South 0.9 mph 2 mph 45% 0 in 886 W/m2
12:28 76.8 °F 55.6 °F 30.1 in NW 2.9 mph 4 mph 48% 0 in 896 W/m2
12:33 77 °F 54 °F 30.1 in NNW 2 mph 4 mph 45% 0 in 905 W/m2
12:38 77.2 °F 54.9 °F 30.1 in ESE 2.9 mph 4 mph 46% 0 in 907 W/m2
12:43 77.7 °F 55.2 °F 30.1 in ESE 2 mph 4 mph 46% 0 in 909 W/m2
12:48 78.3 °F 54 °F 30.1 in North 2 mph 3 mph 43% 0 in 921 W/m2
12:53 78.8 °F 55.6 °F 30.1 in East 2.9 mph 6 mph 45% 0 in 925 W/m2
12:58 79.3 °F 54.9 °F 30.1 in ENE 2 mph 3 mph 43% 0 in 928 W/m2
13:03 79.9 °F 54.1 °F 30.1 in East 0.9 mph 6 mph 41% 0 in 932 W/m2
13:08 80.1 °F 54.9 °F 30.1 in South 0.9 mph 3 mph 42% 0 in 933 W/m2
13:13 80.1 °F 54.9 °F 30.1 in Calm   2 mph 42% 0 in 942 W/m2
13:18 79.9 °F 53.4 °F 30.1 in North 4 mph 6 mph 40% 0 in 942 W/m2
13:23 79.9 °F 54.1 °F 30.1 in East 4 mph 5 mph 41% 0 in 949 W/m2
13:28 79.9 °F 54.1 °F 30.1 in ESE 2.9 mph 6 mph 41% 0 in 940 W/m2
13:33 79.7 °F 54.5 °F 30.1 in Calm   5 mph 42% 0 in 940 W/m2
13:38 79.7 °F 54 °F 30.1 in East 2 mph 5 mph 41% 0 in 937 W/m2
13:43 79.7 °F 53.2 °F 30.1 in East 2 mph 7 mph 40% 0 in 942 W/m2
13:48 80.1 °F 54.9 °F 30.1 in SE 2.9 mph 4 mph 42% 0 in 942 W/m2
13:53 80.4 °F 54 °F 30.1 in South 0.9 mph 6 mph 40% 0 in 940 W/m2
13:58 81 °F 53.6 °F 30.1 in ESE 2.9 mph 6 mph 39% 0 in 935 W/m2
14:03 81 °F 53.6 °F 30.1 in East 4 mph 6 mph 39% 0 in 933 W/m2
14:08 81 °F 54.3 °F 30.1 in NW 0.9 mph 4 mph 40% 0 in 933 W/m2
14:13 81.1 °F 55.2 °F 30.1 in NE 2 mph 2 mph 41% 0 in 933 W/m2
14:18 81.1 °F 53.8 °F 30.1 in SW 0.9 mph 3 mph 39% 0 in 940 W/m2
14:23 80.8 °F 55.6 °F 30.1 in NE 0.9 mph 3 mph 42% 0 in 935 W/m2
14:28 81.1 °F 53.8 °F 30.1 in NNE 2.9 mph 3 mph 39% 0 in 935 W/m2
14:33 81.7 °F 55 °F 30.1 in WNW 2.9 mph 5 mph 40% 0 in 937 W/m2
14:38 81.9 °F 54.5 °F 30.1 in WNW 2.9 mph 4 mph 39% 0 in 933 W/m2
14:43 81.9 °F 53.8 °F 30.1 in ENE 2.9 mph 3 mph 38% 0 in 932 W/m2
14:48 81.9 °F 53.8 °F 30.1 in NW 2 mph 6 mph 38% 0 in 930 W/m2
14:53 82 °F 53.2 °F 30.1 in SW 2.9 mph 8 mph 37% 0 in 925 W/m2
14:58 82 °F 53.2 °F 30.1 in West 2 mph 3 mph 37% 0 in 921 W/m2
15:03 82 °F 53.2 °F 30.1 in East 0.9 mph 3 mph 37% 0 in 916 W/m2
15:08 82.2 °F 54.1 °F 30.1 in NNW 2.9 mph 5 mph 38% 0 in 911 W/m2
15:13 82.4 °F 54.3 °F 30.1 in WNW 6 mph 6 mph 38% 0 in 904 W/m2
15:18 82.6 °F 53.6 °F 30.1 in East 6 mph 6 mph 37% 0 in 896 W/m2
15:23 82.4 °F 54.3 °F 30.1 in East 2 mph 3 mph 38% 0 in 891 W/m2
15:28 82.9 °F 53.2 °F 30.1 in NNW 0.9 mph 3 mph 36% 0 in 884 W/m2
15:33 83.1 °F 53.4 °F 30.1 in ENE 4.9 mph 8 mph 36% 0 in 881 W/m2
15:38 83.1 °F 54.1 °F 30.1 in SE 2 mph 3 mph 37% 0 in 872 W/m2
15:43 83.3 °F 53.6 °F 30.1 in East 2 mph 6 mph 36% 0 in 863 W/m2
15:48 83.7 °F 53.1 °F 30.1 in WNW 2.9 mph 5 mph 35% 0 in 858 W/m2
15:53 83.1 °F 52.7 °F 30.1 in WNW 2 mph 6 mph 35% 0 in 851 W/m2
15:59 83.1 °F 53.4 °F 30.1 in South 0.9 mph 3 mph 36% 0 in 844 W/m2
16:04 83.5 °F 53.8 °F 30.1 in ENE 2 mph 4 mph 36% 0 in 835 W/m2
16:09 83.5 °F 53.8 °F 30.1 in WSW 2.9 mph 4 mph 36% 0 in 824 W/m2
16:14 84 °F 55.8 °F 30.1 in West 2 mph 3 mph 38% 0 in 814 W/m2
16:19 84.4 °F 53.8 °F 30.1 in WNW 2.9 mph 4 mph 35% 0 in 805 W/m2
16:24 84.4 °F 53.8 °F 30.1 in East 0.9 mph 2 mph 35% 0 in 795 W/m2
16:29 84.6 °F 55.4 °F 30.1 in WNW 4 mph 4 mph 37% 0 in 786 W/m2
16:34 84.7 °F 54.9 °F 30 in ESE 0.9 mph 4 mph 36% 0 in 775 W/m2
16:39 85.3 °F 54.5 °F 30 in ESE 2 mph 2 mph 35% 0 in 763 W/m2
16:44 85.5 °F 54 °F 30 in SW 2 mph 3 mph 34% 0 in 754 W/m2
16:49 85.5 °F 53.1 °F 30 in East 0.9 mph 3 mph 33% 0 in 742 W/m2
16:54 85.6 °F 54 °F 30 in ESE 0.9 mph 2 mph 34% 0 in 726 W/m2
16:59 85.6 °F 54.9 °F 30 in Calm   4 mph 35% 0 in 719 W/m2
17:04 86 °F 52.7 °F 30 in NE 2 mph 3 mph 32% 0 in 705 W/m2
17:09 86.2 °F 55.4 °F 30 in NNW 2 mph 2 mph 35% 0 in 691 W/m2
17:14 86.4 °F 54.7 °F 30 in NNE 0.9 mph 4 mph 34% 0 in 680 W/m2
17:19 86.7 °F 55.8 °F 30 in WNW 2 mph 2 mph 35% 0 in 670 W/m2
17:24 86.4 °F 53.1 °F 30 in NNW 2.9 mph 5 mph 32% 0 in 656 W/m2
17:29 85.6 °F 53.2 °F 30 in NW 4 mph 7 mph 33% 0 in 643 W/m2
17:34 85.3 °F 52.9 °F 30 in NNW 2 mph 4 mph 33% 0 in 631 W/m2
17:39 85.1 °F 54.3 °F 30 in Calm   5 mph 35% 0 in 619 W/m2
17:44 85.6 °F 54 °F 30 in ENE 0.9 mph 4 mph 34% 0 in 605 W/m2
17:49 85.8 °F 55 °F 30 in ENE 4 mph 4 mph 35% 0 in 591 W/m2
17:54 85.6 °F 54.9 °F 30 in Calm   2 mph 35% 0 in 577 W/m2
17:59 85.6 °F 54.9 °F 30 in NNW 4 mph 4 mph 35% 0 in 566 W/m2
18:04 85.6 °F 55.6 °F 30 in ENE 2 mph 5 mph 36% 0 in 550 W/m2
18:09 85.6 °F 54 °F 30 in NNW 0.9 mph 2 mph 34% 0 in 533 W/m2
18:14 85.6 °F 54 °F 30 in West 0.9 mph 4 mph 34% 0 in 520 W/m2
18:19 85.5 °F 54 °F 30 in NE 0.9 mph 4 mph 34% 0 in 494 W/m2
18:24 84.9 °F 54.1 °F 30 in NNW 0.9 mph 5 mph 35% 0 in 459 W/m2
18:29 84.7 °F 54.1 °F 30 in WNW 2 mph 3 mph 35% 0 in 425 W/m2
18:34 84.9 °F 53.4 °F 30 in ENE 2.9 mph 6 mph 34% 0 in 385 W/m2
18:39 85.1 °F 54.3 °F 30 in NNW 2 mph 6 mph 35% 0 in 360 W/m2
18:44 85.3 °F 54.5 °F 30 in ENE 4 mph 5 mph 35% 0 in 339 W/m2
18:49 85.3 °F 54.5 °F 30 in Calm   5 mph 35% 0 in 308 W/m2
18:54 85.5 °F 56.3 °F 30 in Calm   1 mph 37% 0 in 281 W/m2
18:59 85.5 °F 54 °F 30 in ENE 2.9 mph 3 mph 34% 0 in 278 W/m2
19:04 85.6 °F 54 °F 30 in ESE 2 mph 3 mph 34% 0 in 294 W/m2
19:09 85.6 °F 54 °F 30 in ESE 0.9 mph 4 mph 34% 0 in 315 W/m2
19:14 85.6 °F 54.9 °F 30 in ENE 2 mph 3 mph 35% 0 in 332 W/m2
19:19 85.8 °F 55 °F 30 in NNW 2.9 mph 3 mph 35% 0 in 327 W/m2
19:24 85.8 °F 54.1 °F 30 in NNW 0.9 mph 2 mph 34% 0 in 315 W/m2
19:29 85.8 °F 54.1 °F 30 in WNW 0.9 mph 3 mph 34% 0 in 295 W/m2
19:34 85.6 °F 54.9 °F 30 in NNW 0.9 mph 2 mph 35% 0 in 264 W/m2
19:39 85.8 °F 55.8 °F 30 in Calm   2 mph 36% 0 in 221 W/m2
19:44 86 °F 55.2 °F 30 in WNW 2.9 mph 4 mph 35% 0 in 193 W/m2
19:49 85.6 °F 54 °F 30 in NW 2 mph 3 mph 34% 0 in 186 W/m2
19:54 85.3 °F 56.1 °F 30 in Calm   2 mph 37% 0 in 188 W/m2
19:59 85.3 °F 55.2 °F 30 in Calm   3 mph 36% 0 in 185 W/m2
20:04 85.1 °F 54.3 °F 30 in NNW 2 mph 3 mph 35% 0 in 171 W/m2
20:14 84.7 °F 54.9 °F 30 in West 2 mph 3 mph 36% 0 in 142 W/m2
20:19 84.7 °F 59.2 °F 30 in West 0.9 mph 1 mph 42% 0 in 128 W/m2
20:24 84.4 °F 59.4 °F 30 in Calm   3 mph 43% 0 in 118 W/m2
20:29 83.8 °F 59.5 °F 30 in Calm   2 mph 44% 0 in 97 W/m2
20:34 83.5 °F 59.4 °F 30 in Calm     44% 0 in 79 W/m2
20:39 82.9 °F 59.4 °F 30 in WSW 2 mph 3 mph 45% 0 in 74 W/m2
20:44 82.4 °F 60.1 °F 30 in Calm     47% 0 in 67 W/m2
20:49 82 °F 59.2 °F 30 in SSW 2 mph 3 mph 46% 0 in 62 W/m2
20:54 81.7 °F 59.5 °F 30 in SSW 0.9 mph 1 mph 47% 0 in 54 W/m2
20:59 81.3 °F 59.7 °F 30 in Calm   3 mph 48% 0 in 46 W/m2
21:04 81.1 °F 60.1 °F 30 in SSW 0.9 mph 1 mph 49% 0 in 37 W/m2
21:09 81 °F 60.1 °F 30 in Calm     49% 0 in 28 W/m2
21:14 80.4 °F 59.5 °F 30 in Calm     49% 0 in 16 W/m2
21:19 79.2 °F 59.5 °F 30 in Calm     51% 0 in 14 W/m2
21:24 78.1 °F 59 °F 30 in Calm     52% 0 in 12 W/m2
21:29 77.4 °F 58.3 °F 30 in Calm     52% 0 in 9 W/m2
21:34 76.8 °F 58.5 °F 30 in Calm     53% 0 in 7 W/m2
21:39 76.3 °F 58.5 °F 30 in Calm     54% 0 in 5 W/m2
21:44 75.6 °F 57.7 °F 30 in Calm     54% 0 in 0 W/m2
21:49 74.8 °F 58.1 °F 30 in Calm     56% 0 in 0 W/m2
21:54 74.1 °F 57.4 °F 30 in Calm     56% 0 in 0 W/m2
21:59 73.4 °F 57.2 °F 30 in Calm     57% 0 in 0 W/m2
22:04 72.9 °F 57.2 °F 30 in Calm     58% 0 in 0 W/m2
22:09 72.3 °F 57.2 °F 30 in Calm     59% 0 in 0 W/m2
22:14 71.8 °F 57.2 °F 30 in Calm     60% 0 in 0 W/m2
22:19 71.2 °F 57 °F 30 in Calm     61% 0 in 0 W/m2
22:24 70.9 °F 57.2 °F 30 in Calm     62% 0 in 0 W/m2
22:29 70.5 °F 57.4 °F 30 in Calm     63% 0 in 0 W/m2
22:34 70.3 °F 57.2 °F 30 in Calm     63% 0 in 0 W/m2
22:39 70 °F 57.2 °F 30 in Calm     64% 0 in 0 W/m2
22:44 69.6 °F 57.4 °F 30 in Calm     65% 0 in 0 W/m2
22:49 69.3 °F 57.4 °F 30 in Calm     66% 0 in 0 W/m2
22:54 69.1 °F 57.2 °F 30 in Calm     66% 0 in 0 W/m2
22:59 68.7 °F 56.8 °F 30 in Calm     66% 0 in 0 W/m2
23:04 68.5 °F 57.2 °F 30 in Calm     67% 0 in 0 W/m2
23:10 68.4 °F 57 °F 30 in Calm     67% 0 in 0 W/m2
23:15 68.2 °F 56.8 °F 30 in Calm     67% 0 in 0 W/m2
23:20 68.2 °F 57.2 °F 30 in Calm     68% 0 in 0 W/m2
23:25 67.8 °F 56.8 °F 30 in Calm     68% 0 in 0 W/m2
23:30 67.6 °F 56.7 °F 30 in Calm     68% 0 in 0 W/m2
23:35 67.6 °F 56.7 °F 30 in Calm     68% 0 in 0 W/m2
23:40 67.5 °F 56.5 °F 30 in Calm   1 mph 68% 0 in 0 W/m2
23:45 67.3 °F 56.3 °F 30 in SSW 0.9 mph 1 mph 68% 0 in 0 W/m2
23:50 67.3 °F 56.3 °F 30 in Calm     68% 0 in 0 W/m2
23:55 67.1 °F 56.7 °F 30 in SSW 0.9 mph 1 mph 69% 0 in 0 W/m2
Juneau County Weather
Compliments of Weather Underground - 2 mb